,,,PA_Meas_PMT16A,,PR_Meas_QMR101_102,,RH_Meas_QMH101,,SR_Meas_QMS101,,TA_Meas_QMH101,,GenWind,,GenWind,
date,time,status,PA,status,PR,status,RH,status,SR,status,TA,status,DirAvg,status,SpdAvg,
2009-11-02, 00:00:04,VALID,1000.49,VALID,0,VALID,92.471,VALID,0,VALID,21.9455,VALID,8,VALID,0.337891,
2009-11-02, 00:01:04,VALID,1000.48,VALID,0,VALID,92.5397,VALID,0,VALID,21.9667,VALID,8,VALID,0.391016,
2009-11-02, 00:02:04,VALID,1000.47,VALID,0,VALID,92.6312,VALID,0,VALID,21.9667,VALID,8,VALID,0.279687,
2009-11-02, 00:03:04,VALID,1000.45,VALID,0,VALID,92.5931,VALID,0,VALID,21.9455,VALID,8,VALID,0.240625,
2009-11-02, 00:04:04,VALID,1000.45,VALID,0,VALID,92.532,VALID,0,VALID,21.926,VALID,8,VALID,0.00585938,
2009-11-02, 00:05:04,VALID,1000.4,VALID,0,VALID,92.4481,VALID,0,VALID,21.9082,VALID,8,VALID,0,
2009-11-02, 00:06:04,VALID,1000.4,VALID,0,VALID,92.3413,VALID,0,VALID,21.8496,VALID,8,VALID,0.0804688,
2009-11-02, 00:07:04,VALID,1000.42,VALID,0,VALID,92.4786,VALID,0,VALID,21.8496,VALID,8,VALID,0.075,
2009-11-02, 00:08:04,VALID,1000.39,VALID,0,VALID,92.5473,VALID,0,VALID,21.848,VALID,8,VALID,0.0542969,
2009-11-02, 00:09:04,VALID,1000.39,VALID,0,VALID,92.6236,VALID,0,VALID,21.8887,VALID,8,VALID,0.182031,
2009-11-02, 00:10:04,VALID,1000.38,VALID,0,VALID,92.6846,VALID,0,VALID,21.887,VALID,8,VALID,0.280469,
2009-11-02, 00:11:04,VALID,1000.38,VALID,0,VALID,92.7838,VALID,0,VALID,21.9065,VALID,8,VALID,0.279687,
2009-11-02, 00:12:04,VALID,1000.38,VALID,0,VALID,93.0051,VALID,0,VALID,21.9862,VALID,125,VALID,0.504687,
2009-11-02, 00:13:04,VALID,1000.34,VALID,0,VALID,93.0203,VALID,0,VALID,22.004,VALID,125,VALID,0.478125,
2009-11-02, 00:14:04,VALID,1000.36,VALID,0,VALID,92.9059,VALID,0,VALID,22.0235,VALID,125,VALID,0.676172,
2009-11-02, 00:15:04,VALID,1000.36,VALID,0,VALID,92.8601,VALID,0,VALID,22.0642,VALID,125,VALID,0.426562,
2009-11-02, 00:16:04,VALID,1000.35,VALID,0,VALID,92.4557,VALID,0,VALID,22.0252,VALID,125,VALID,0.952734,
2009-11-02, 00:17:04,VALID,1000.35,VALID,0,VALID,92.7533,VALID,0,VALID,22.043,VALID,132,VALID,0.70625,
2009-11-02, 00:18:04,VALID,1000.32,VALID,0,VALID,92.5473,VALID,0,VALID,22.0625,VALID,132,VALID,0.352344,
2009-11-02, 00:19:04,VALID,1000.3,VALID,0,VALID,92.1887,VALID,0,VALID,22.0235,VALID,124,VALID,0.714844,
2009-11-02, 00:20:04,VALID,1000.3,VALID,0,VALID,91.9598,VALID,0,VALID,21.9862,VALID,124,VALID,0.727344,
2009-11-02, 00:21:04,VALID,1000.3,VALID,0,VALID,91.6699,VALID,0,VALID,21.9065,VALID,118,VALID,0.678125,
2009-11-02, 00:22:04,VALID,1000.28,VALID,0,VALID,91.7157,VALID,0,VALID,21.8675,VALID,114,VALID,0.533203,
2009-11-02, 00:23:04,VALID,1000.29,VALID,0,VALID,91.5554,VALID,0,VALID,21.809,VALID,100,VALID,0.64375,
2009-11-02, 00:24:04,VALID,1000.29,VALID,0,VALID,91.4334,VALID,0,VALID,21.731,VALID,100,VALID,0.478125,
2009-11-02, 00:25:04,VALID,1000.29,VALID,0,VALID,91.3189,VALID,0,VALID,21.653,VALID,100,VALID,0.369531,
2009-11-02, 00:26:04,VALID,1000.26,VALID,0,VALID,91.792,VALID,0,VALID,21.6335,VALID,100,VALID,0.408203,
2009-11-02, 00:27:04,VALID,1000.26,VALID,0,VALID,91.8301,VALID,0,VALID,21.6335,VALID,100,VALID,0.0773437,
2009-11-02, 00:28:04,VALID,1000.23,VALID,0,VALID,91.7691,VALID,0,VALID,21.5961,VALID,100,VALID,0.163672,
2009-11-02, 00:29:04,VALID,1000.22,VALID,0,VALID,91.9598,VALID,0,VALID,21.575,VALID,100,VALID,0,
2009-11-02, 00:30:04,VALID,1000.18,VALID,0,VALID,92.1429,VALID,0,VALID,21.5961,VALID,100,VALID,0,
2009-11-02, 00:31:04,VALID,1000.19,VALID,0,VALID,92.2955,VALID,0,VALID,21.5945,VALID,100,VALID,0.0402344,
2009-11-02, 00:32:04,VALID,1000.19,VALID,0,VALID,92.6999,VALID,0,VALID,21.653,VALID,100,VALID,0.300391,
2009-11-02, 00:33:04,VALID,1000.19,VALID,0,VALID,92.8601,VALID,0,VALID,21.731,VALID,100,VALID,0.383594,
2009-11-02, 00:34:04,VALID,1000.22,VALID,0,VALID,92.8296,VALID,0,VALID,21.7716,VALID,93,VALID,0.486719,
2009-11-02, 00:35:04,VALID,1000.26,VALID,0,VALID,92.6923,VALID,0,VALID,21.77,VALID,93,VALID,0.05625,
2009-11-02, 00:36:04,VALID,1000.29,VALID,0,VALID,92.7685,VALID,0,VALID,21.8285,VALID,228,VALID,0.591016,
2009-11-02, 00:37:04,VALID,1000.3,VALID,0,VALID,92.8525,VALID,0,VALID,21.8675,VALID,227,VALID,0.28125,
2009-11-02, 00:38:04,VALID,1000.29,VALID,0,VALID,92.9135,VALID,0,VALID,21.9065,VALID,165,VALID,0.430078,
2009-11-02, 00:39:04,VALID,1000.28,VALID,0,VALID,92.822,VALID,0,VALID,21.926,VALID,78,VALID,0.717578,
2009-11-02, 00:40:04,VALID,1000.31,VALID,0,VALID,92.7304,VALID,0,VALID,21.965,VALID,55,VALID,0.757031,
2009-11-02, 00:41:04,VALID,1000.29,VALID,0,VALID,92.5091,VALID,0,VALID,22.004,VALID,55,VALID,0.726953,
2009-11-02, 00:42:04,VALID,1000.28,VALID,0,VALID,92.3642,VALID,0,VALID,22.0235,VALID,55,VALID,0.702734,
2009-11-02, 00:43:04,VALID,1000.3,VALID,0,VALID,92.0361,VALID,0,VALID,22.043,VALID,55,VALID,0.498437,
2009-11-02, 00:44:04,VALID,1000.28,VALID,0,VALID,92.0056,VALID,0,VALID,22.043,VALID,55,VALID,0.274219,
2009-11-02, 00:45:04,VALID,1000.27,VALID,0,VALID,91.8454,VALID,0,VALID,22.0625,VALID,55,VALID,0,
2009-11-02, 00:46:04,VALID,1000.25,VALID,0,VALID,91.7309,VALID,0,VALID,22.0642,VALID,55,VALID,0,
2009-11-02, 00:47:04,VALID,1000.27,VALID,0,VALID,91.6317,VALID,0,VALID,22.0235,VALID,55,VALID,0.435937,
2009-11-02, 00:48:04,VALID,1000.28,VALID,0,VALID,91.5249,VALID,0,VALID,21.9845,VALID,55,VALID,0.671875,
2009-11-02, 00:49:04,VALID,1000.27,VALID,0,VALID,91.3952,VALID,0,VALID,21.9845,VALID,55,VALID,0.789063,
2009-11-02, 00:50:04,VALID,1000.23,VALID,0,VALID,91.1892,VALID,0,VALID,21.9065,VALID,55,VALID,0.896875,
2009-11-02, 00:51:04,VALID,1000.24,VALID,0,VALID,91.0748,VALID,0,VALID,21.8285,VALID,53,VALID,0.861328,
2009-11-02, 00:52:04,VALID,1000.23,VALID,0,VALID,90.9909,VALID,0,VALID,21.7895,VALID,53,VALID,0.930859,
2009-11-02, 00:53:04,VALID,1000.19,VALID,0,VALID,91.2121,VALID,0,VALID,21.7911,VALID,53,VALID,0.751172,
2009-11-02, 00:54:04,VALID,1000.17,VALID,0,VALID,91.4028,VALID,0,VALID,21.77,VALID,53,VALID,0.783984,
2009-11-02, 00:55:04,VALID,1000.13,VALID,0,VALID,90.9909,VALID,0,VALID,21.7505,VALID,53,VALID,0.781641,
2009-11-02, 00:56:04,VALID,1000.15,VALID,0,VALID,90.6246,VALID,0,VALID,21.692,VALID,53,VALID,0.768359,
2009-11-02, 00:57:04,VALID,1000.08,VALID,0,VALID,90.266,VALID,0,VALID,21.614,VALID,53,VALID,0.758594,
2009-11-02, 00:58:04,VALID,1000.1,VALID,0,VALID,90.205,VALID,0,VALID,21.536,VALID,53,VALID,0.771484,
2009-11-02, 00:59:04,VALID,1000.08,VALID,0,VALID,90.2889,VALID,0,VALID,21.4385,VALID,53,VALID,0.694531,
2009-11-02, 01:00:04,VALID,1000.11,VALID,0,VALID,90.6704,VALID,0,VALID,21.4011,VALID,53,VALID,0.792188,
2009-11-02, 01:01:04,VALID,1000.08,VALID,0,VALID,90.6704,VALID,0,VALID,21.3215,VALID,53,VALID,0.888672,
2009-11-02, 01:02:04,VALID,1000.1,VALID,0,VALID,90.762,VALID,0,VALID,21.263,VALID,53,VALID,1.08555,
2009-11-02, 01:03:04,VALID,1000.08,VALID,0,VALID,91.3037,VALID,0,VALID,21.224,VALID,53,VALID,0.828906,
2009-11-02, 01:04:04,VALID,1000.05,VALID,0,VALID,91.3266,VALID,0,VALID,21.2045,VALID,53,VALID,0.564062,
2009-11-02, 01:05:04,VALID,1000.02,VALID,0,VALID,91.6928,VALID,0,VALID,21.2061,VALID,53,VALID,0.602734,
2009-11-02, 01:06:04,VALID,1000.02,VALID,0,VALID,92.2116,VALID,0,VALID,21.2435,VALID,52,VALID,0.730078,
2009-11-02, 01:07:04,VALID,999.969,VALID,0,VALID,92.1506,VALID,0.112286,VALID,21.2435,VALID,50,VALID,0.613281,
2009-11-02, 01:08:04,VALID,999.951,VALID,0,VALID,92.059,VALID,0,VALID,21.224,VALID,31,VALID,0.596484,
2009-11-02, 01:09:04,VALID,999.976,VALID,0,VALID,91.9903,VALID,0,VALID,21.1655,VALID,23,VALID,0.563672,
2009-11-02, 01:10:04,VALID,999.95,VALID,0,VALID,91.914,VALID,0,VALID,21.1671,VALID,23,VALID,0.520312,
2009-11-02, 01:11:04,VALID,999.949,VALID,0,VALID,91.8301,VALID,0,VALID,21.0875,VALID,23,VALID,0.584375,
2009-11-02, 01:12:04,VALID,999.967,VALID,0,VALID,92.0285,VALID,0,VALID,21.029,VALID,23,VALID,0.548437,
2009-11-02, 01:13:04,VALID,999.915,VALID,0,VALID,92.1277,VALID,0,VALID,20.99,VALID,23,VALID,0.785937,
2009-11-02, 01:14:04,VALID,999.912,VALID,0,VALID,92.9593,VALID,0,VALID,21.0875,VALID,31,VALID,0.982813,
2009-11-02, 01:15:04,VALID,999.918,VALID,0,VALID,93.1805,VALID,0,VALID,21.185,VALID,31,VALID,0.880078,
2009-11-02, 01:16:04,VALID,999.909,VALID,0,VALID,93.1577,VALID,0,VALID,21.2435,VALID,31,VALID,1.0918,
2009-11-02, 01:17:04,VALID,999.885,VALID,0,VALID,93.0051,VALID,0,VALID,21.263,VALID,31,VALID,1.07266,
2009-11-02, 01:18:04,VALID,999.905,VALID,0,VALID,92.738,VALID,0,VALID,21.2646,VALID,31,VALID,0.986328,
2009-11-02, 01:19:04,VALID,999.92,VALID,0,VALID,92.5168,VALID,0,VALID,21.2435,VALID,31,VALID,1.02578,
2009-11-02, 01:20:04,VALID,999.882,VALID,0,VALID,92.5931,VALID,0,VALID,21.224,VALID,31,VALID,1.02539,
2009-11-02, 01:21:04,VALID,999.902,VALID,0,VALID,92.7991,VALID,0,VALID,21.2825,VALID,31,VALID,0.716797,
2009-11-02, 01:22:04,VALID,999.875,VALID,0,VALID,92.7533,VALID,0,VALID,21.3215,VALID,31,VALID,0.5375,
2009-11-02, 01:23:04,VALID,999.88,VALID,0,VALID,92.6312,VALID,0,VALID,21.341,VALID,31,VALID,0.558203,
2009-11-02, 01:24:04,VALID,999.84,VALID,0,VALID,92.471,VALID,0,VALID,21.3215,VALID,31,VALID,0.517969,
2009-11-02, 01:25:04,VALID,999.833,VALID,0,VALID,92.3413,VALID,0,VALID,21.302,VALID,31,VALID,0.495703,
2009-11-02, 01:26:04,VALID,999.849,VALID,0,VALID,92.2268,VALID,0,VALID,21.2825,VALID,31,VALID,0.557813,
2009-11-02, 01:27:04,VALID,999.849,VALID,0,VALID,92.0819,VALID,0,VALID,21.2435,VALID,31,VALID,0.592188,
2009-11-02, 01:28:04,VALID,999.849,VALID,0,VALID,91.8377,VALID,0,VALID,21.2061,VALID,41,VALID,0.565234,
2009-11-02, 01:29:05,VALID,999.837,VALID,0,VALID,92.3184,VALID,0,VALID,21.146,VALID,61,VALID,0.826953,
2009-11-02, 01:30:05,VALID,999.856,VALID,0,VALID,92.616,VALID,0,VALID,21.2045,VALID,68,VALID,0.914453,
2009-11-02, 01:31:05,VALID,999.87,VALID,0,VALID,92.5473,VALID,0,VALID,21.2646,VALID,78,VALID,0.887109,
2009-11-02, 01:32:05,VALID,999.87,VALID,0,VALID,92.41,VALID,0,VALID,21.2451,VALID,78,VALID,1.01172,
2009-11-02, 01:33:05,VALID,999.883,VALID,0,VALID,92.2345,VALID,0,VALID,21.2256,VALID,78,VALID,0.874219,
2009-11-02, 01:34:05,VALID,999.868,VALID,0,VALID,91.7004,VALID,0,VALID,21.1476,VALID,78,VALID,0.831641,
2009-11-02, 01:35:05,VALID,999.854,VALID,0,VALID,92.471,VALID,0,VALID,21.1655,VALID,78,VALID,0.487891,
2009-11-02, 01:36:05,VALID,999.82,VALID,0,VALID,92.4786,VALID,0,VALID,21.2256,VALID,78,VALID,0.405469,
2009-11-02, 01:37:05,VALID,999.826,VALID,0,VALID,92.326,VALID,0,VALID,21.1655,VALID,78,VALID,0.272656,
2009-11-02, 01:38:05,VALID,999.838,VALID,0,VALID,92.2726,VALID,0,VALID,21.1476,VALID,78,VALID,0.0410156,
2009-11-02, 01:39:05,VALID,999.845,VALID,0,VALID,92.265,VALID,0,VALID,21.1265,VALID,78,VALID,0,
2009-11-02, 01:40:05,VALID,999.834,VALID,0,VALID,92.3718,VALID,0,VALID,21.107,VALID,78,VALID,0.00195313,
2009-11-02, 01:41:05,VALID,999.765,VALID,0,VALID,92.5626,VALID,0,VALID,21.1265,VALID,78,VALID,0.0160156,
2009-11-02, 01:42:05,VALID,999.77,VALID,0,VALID,92.5778,VALID,0,VALID,21.1265,VALID,78,VALID,0,
2009-11-02, 01:43:05,VALID,999.746,VALID,0,VALID,92.5778,VALID,0,VALID,21.1476,VALID,78,VALID,0,
2009-11-02, 01:44:05,VALID,999.74,VALID,0,VALID,92.616,VALID,0,VALID,21.1671,VALID,78,VALID,0,
2009-11-02, 01:45:05,VALID,999.677,VALID,0,VALID,92.6312,VALID,0,VALID,21.146,VALID,78,VALID,0.307031,
2009-11-02, 01:46:05,VALID,999.683,VALID,0,VALID,92.7075,VALID,0,VALID,21.146,VALID,78,VALID,0.233594,
2009-11-02, 01:47:05,VALID,999.68,VALID,0,VALID,92.7762,VALID,0,VALID,21.1671,VALID,78,VALID,0.0289063,
2009-11-02, 01:48:05,VALID,999.673,VALID,0,VALID,92.8448,VALID,0,VALID,21.185,VALID,78,VALID,0,
2009-11-02, 01:49:05,VALID,999.657,VALID,0,VALID,92.8601,VALID,0,VALID,21.1866,VALID,78,VALID,0,
2009-11-02, 01:50:05,VALID,999.694,VALID,0,VALID,92.8525,VALID,0,VALID,21.2061,VALID,78,VALID,0,
2009-11-02, 01:51:05,VALID,999.7,VALID,0,VALID,92.8601,VALID,0,VALID,21.185,VALID,78,VALID,0,
2009-11-02, 01:52:05,VALID,999.68,VALID,0,VALID,92.616,VALID,0,VALID,21.1265,VALID,23,VALID,0,
2009-11-02, 01:53:05,VALID,999.707,VALID,0,VALID,92.5549,VALID,0,VALID,21.1281,VALID,23,VALID,0,
2009-11-02, 01:54:05,VALID,999.717,VALID,0,VALID,92.4939,VALID,0,VALID,21.0696,VALID,23,VALID,0,
2009-11-02, 01:55:05,VALID,999.688,VALID,0,VALID,92.2116,VALID,0,VALID,20.9315,VALID,23,VALID,0,
2009-11-02, 01:56:05,VALID,999.683,VALID,0,VALID,92.2116,VALID,0,VALID,20.8746,VALID,23,VALID,0,
2009-11-02, 01:57:05,VALID,999.674,VALID,0,VALID,92.471,VALID,0,VALID,20.8356,VALID,23,VALID,0,
2009-11-02, 01:58:05,VALID,999.649,VALID,0,VALID,92.677,VALID,0,VALID,20.8145,VALID,23,VALID,0,
2009-11-02, 01:59:05,VALID,999.668,VALID,0,VALID,92.9059,VALID,0,VALID,20.8356,VALID,23,VALID,0,
2009-11-02, 02:00:05,VALID,999.63,VALID,0,VALID,93.0814,VALID,0,VALID,20.873,VALID,23,VALID,0,
2009-11-02, 02:01:05,VALID,999.616,VALID,0,VALID,93.1348,VALID,0,VALID,20.8925,VALID,23,VALID,0,
2009-11-02, 02:02:05,VALID,999.613,VALID,0,VALID,92.9669,VALID,0,VALID,20.8941,VALID,23,VALID,0,
2009-11-02, 02:03:05,VALID,999.658,VALID,0,VALID,93.0203,VALID,0,VALID,20.8535,VALID,23,VALID,0,
2009-11-02, 02:04:05,VALID,999.636,VALID,0,VALID,93.1195,VALID,0,VALID,20.8746,VALID,23,VALID,0,
2009-11-02, 02:05:05,VALID,999.636,VALID,0,VALID,93.0432,VALID,0,VALID,20.8746,VALID,23,VALID,0,
2009-11-02, 02:06:05,VALID,999.678,VALID,0,VALID,92.7914,VALID,0,VALID,20.7755,VALID,23,VALID,0,
2009-11-02, 02:07:05,VALID,999.654,VALID,0,VALID,93.0051,VALID,0,VALID,20.756,VALID,23,VALID,0,
2009-11-02, 02:08:05,VALID,999.643,VALID,0,VALID,93.2187,VALID,0.112286,VALID,20.8145,VALID,23,VALID,0,
2009-11-02, 02:09:05,VALID,999.676,VALID,0,VALID,93.2721,VALID,0,VALID,20.8551,VALID,23,VALID,0,
2009-11-02, 02:10:05,VALID,999.694,VALID,0,VALID,93.2263,VALID,0,VALID,20.8145,VALID,23,VALID,0,
2009-11-02, 02:11:05,VALID,999.686,VALID,0,VALID,93.1195,VALID,0,VALID,20.8161,VALID,23,VALID,0,
2009-11-02, 02:12:05,VALID,999.695,VALID,0,VALID,93.1043,VALID,0,VALID,20.7755,VALID,23,VALID,0,
2009-11-02, 02:13:05,VALID,999.704,VALID,0,VALID,93.2645,VALID,0,VALID,20.7966,VALID,23,VALID,0.3375,
2009-11-02, 02:14:05,VALID,999.682,VALID,0,VALID,93.2492,VALID,0,VALID,20.7966,VALID,23,VALID,0,
2009-11-02, 02:15:05,VALID,999.66,VALID,0,VALID,93.1882,VALID,0,VALID,20.756,VALID,23,VALID,0,
2009-11-02, 02:16:05,VALID,999.649,VALID,0,VALID,93.1729,VALID,0,VALID,20.7771,VALID,23,VALID,0,
2009-11-02, 02:17:05,VALID,999.688,VALID,0,VALID,93.2034,VALID,0,VALID,20.756,VALID,23,VALID,0,
2009-11-02, 02:18:05,VALID,999.665,VALID,0,VALID,93.2874,VALID,0,VALID,20.7755,VALID,23,VALID,0,
2009-11-02, 02:19:05,VALID,999.692,VALID,0,VALID,93.3484,VALID,0,VALID,20.795,VALID,23,VALID,0,
2009-11-02, 02:20:05,VALID,999.699,VALID,0,VALID,93.4094,VALID,0,VALID,20.8161,VALID,23,VALID,0,
2009-11-02, 02:21:05,VALID,999.685,VALID,0,VALID,93.4705,VALID,0.112286,VALID,20.8356,VALID,23,VALID,0,
2009-11-02, 02:22:05,VALID,999.699,VALID,0,VALID,93.5086,VALID,0,VALID,20.834,VALID,23,VALID,0,
2009-11-02, 02:23:05,VALID,999.651,VALID,0,VALID,93.5544,VALID,0,VALID,20.8746,VALID,23,VALID,0,
2009-11-02, 02:24:05,VALID,999.645,VALID,0,VALID,93.5849,VALID,0,VALID,20.9136,VALID,23,VALID,0,
2009-11-02, 02:25:05,VALID,999.627,VALID,0,VALID,93.5697,VALID,0,VALID,20.9331,VALID,23,VALID,0,
2009-11-02, 02:26:05,VALID,999.624,VALID,0,VALID,93.6536,VALID,0,VALID,20.9526,VALID,23,VALID,0,
2009-11-02, 02:27:05,VALID,999.628,VALID,0,VALID,93.7299,VALID,0,VALID,20.99,VALID,23,VALID,0,
2009-11-02, 02:28:05,VALID,999.625,VALID,0,VALID,93.6917,VALID,0,VALID,21.0095,VALID,23,VALID,0,
2009-11-02, 02:29:05,VALID,999.626,VALID,0,VALID,93.5926,VALID,0,VALID,21.0095,VALID,23,VALID,0,
2009-11-02, 02:30:05,VALID,999.615,VALID,0,VALID,93.4247,VALID,0,VALID,20.9721,VALID,23,VALID,0,
2009-11-02, 02:31:05,VALID,999.607,VALID,0,VALID,93.5315,VALID,0,VALID,20.9721,VALID,23,VALID,0,
2009-11-02, 02:32:05,VALID,999.61,VALID,0,VALID,93.6383,VALID,0,VALID,21.0111,VALID,23,VALID,0,
2009-11-02, 02:33:05,VALID,999.592,VALID,0,VALID,93.5239,VALID,0,VALID,20.9916,VALID,23,VALID,0,
2009-11-02, 02:34:05,VALID,999.589,VALID,0,VALID,93.4934,VALID,0,VALID,20.9705,VALID,23,VALID,0,
2009-11-02, 02:35:05,VALID,999.606,VALID,0,VALID,93.1271,VALID,0,VALID,20.873,VALID,23,VALID,0.399219,
2009-11-02, 02:36:05,VALID,999.606,VALID,0,VALID,93.0508,VALID,0,VALID,20.7966,VALID,23,VALID,0.808594,
2009-11-02, 02:37:05,VALID,999.607,VALID,0,VALID,93.3255,VALID,0,VALID,20.7966,VALID,23,VALID,0.915234,
2009-11-02, 02:38:05,VALID,999.603,VALID,0,VALID,93.1577,VALID,0,VALID,20.7381,VALID,18,VALID,0.906641,
2009-11-02, 02:39:05,VALID,999.614,VALID,0,VALID,93.234,VALID,0,VALID,20.6991,VALID,4,VALID,0.637891,
2009-11-02, 02:40:05,VALID,999.651,VALID,0,VALID,93.1577,VALID,0,VALID,20.6406,VALID,235,VALID,1.04844,
2009-11-02, 02:41:05,VALID,999.66,VALID,0,VALID,93.3866,VALID,0,VALID,20.7171,VALID,235,VALID,0.372266,
2009-11-02, 02:42:05,VALID,999.636,VALID,0,VALID,93.4934,VALID,0,VALID,20.7381,VALID,235,VALID,0.227734,
2009-11-02, 02:43:05,VALID,999.658,VALID,0,VALID,93.5544,VALID,0,VALID,20.7755,VALID,235,VALID,0,
2009-11-02, 02:44:05,VALID,999.65,VALID,0,VALID,93.6231,VALID,0,VALID,20.8356,VALID,235,VALID,0,
2009-11-02, 02:45:05,VALID,999.644,VALID,0,VALID,93.6765,VALID,0,VALID,20.8746,VALID,235,VALID,0,
2009-11-02, 02:46:05,VALID,999.63,VALID,0,VALID,93.6383,VALID,0,VALID,20.873,VALID,235,VALID,0,
2009-11-02, 02:47:05,VALID,999.602,VALID,0,VALID,93.6536,VALID,0,VALID,20.8925,VALID,235,VALID,0,
2009-11-02, 02:48:05,VALID,999.598,VALID,0,VALID,93.6307,VALID,0,VALID,20.9331,VALID,235,VALID,0.0683594,
2009-11-02, 02:49:05,VALID,999.584,VALID,0,VALID,93.6002,VALID,0,VALID,20.9526,VALID,235,VALID,0.394922,
2009-11-02, 02:50:05,VALID,999.566,VALID,0,VALID,93.1271,VALID,0,VALID,20.8145,VALID,270,VALID,0.504687,
2009-11-02, 02:51:05,VALID,999.56,VALID,0,VALID,92.9135,VALID,0,VALID,20.6796,VALID,352,VALID,0.475781,
2009-11-02, 02:52:05,VALID,999.564,VALID,0,VALID,93.1271,VALID,0,VALID,20.6196,VALID,352,VALID,0.402734,
2009-11-02, 02:53:05,VALID,999.571,VALID,0,VALID,93.7528,VALID,0,VALID,20.7186,VALID,352,VALID,0.519922,
2009-11-02, 02:54:05,VALID,999.583,VALID,0,VALID,93.8748,VALID,0,VALID,20.834,VALID,352,VALID,0.339063,
2009-11-02, 02:55:05,VALID,999.61,VALID,0,VALID,93.6917,VALID,0,VALID,20.8941,VALID,57,VALID,1.06406,
2009-11-02, 02:56:05,VALID,999.605,VALID,0,VALID,93.8672,VALID,0,VALID,20.8925,VALID,58,VALID,0.849609,
2009-11-02, 02:57:05,VALID,999.603,VALID,0,VALID,93.6536,VALID,0,VALID,21.0111,VALID,54,VALID,1.01289,
2009-11-02, 02:58:05,VALID,999.598,VALID,0,VALID,93.5773,VALID,0,VALID,21.0306,VALID,55,VALID,0.694141,
2009-11-02, 02:59:05,VALID,999.615,VALID,0,VALID,93.4018,VALID,0,VALID,21.0485,VALID,55,VALID,0.535937,
2009-11-02, 03:00:05,VALID,999.573,VALID,0,VALID,92.822,VALID,0,VALID,20.9721,VALID,55,VALID,0.297656,
2009-11-02, 03:01:05,VALID,999.601,VALID,0,VALID,92.5626,VALID,0,VALID,20.9331,VALID,55,VALID,0.160156,
2009-11-02, 03:02:05,VALID,999.62,VALID,0,VALID,92.2955,VALID,0,VALID,20.8746,VALID,266,VALID,0.624609,
2009-11-02, 03:03:05,VALID,999.616,VALID,0,VALID,92.6694,VALID,0,VALID,20.9331,VALID,266,VALID,0.533594,
2009-11-02, 03:04:05,VALID,999.615,VALID,0,VALID,92.7838,VALID,0,VALID,21.0111,VALID,266,VALID,0.3625,
2009-11-02, 03:05:05,VALID,999.584,VALID,0,VALID,92.6541,VALID,0,VALID,20.9705,VALID,18,VALID,0.870703,
2009-11-02, 03:06:05,VALID,999.576,VALID,0,VALID,92.7304,VALID,0,VALID,20.9705,VALID,29,VALID,1.13633,
2009-11-02, 03:07:05,VALID,999.589,VALID,0,VALID,92.5015,VALID,0,VALID,20.9721,VALID,30,VALID,0.787891,
2009-11-02, 03:08:05,VALID,999.582,VALID,0,VALID,92.4939,VALID,0,VALID,20.9331,VALID,30,VALID,0.617578,
2009-11-02, 03:09:05,VALID,999.611,VALID,0,VALID,91.9064,VALID,0,VALID,20.8356,VALID,30,VALID,0.662891,
2009-11-02, 03:10:05,VALID,999.614,VALID,0,VALID,92.12,VALID,0,VALID,20.7771,VALID,30,VALID,0.492969,
2009-11-02, 03:11:05,VALID,999.6,VALID,0,VALID,92.1124,VALID,0,VALID,20.6976,VALID,30,VALID,0.425391,
2009-11-02, 03:12:05,VALID,999.602,VALID,0,VALID,92.2268,VALID,0,VALID,20.6391,VALID,42,VALID,0.546875,
2009-11-02, 03:13:05,VALID,999.614,VALID,0,VALID,92.2192,VALID,0,VALID,20.6211,VALID,63,VALID,0.700391,
2009-11-02, 03:14:05,VALID,999.621,VALID,0,VALID,92.3184,VALID,0,VALID,20.5611,VALID,64,VALID,0.802344,
2009-11-02, 03:15:05,VALID,999.649,VALID,0,VALID,92.41,VALID,0,VALID,20.5806,VALID,83,VALID,0.875781,
2009-11-02, 03:16:05,VALID,999.656,VALID,0,VALID,92.41,VALID,0,VALID,20.5627,VALID,83,VALID,0.739453,
2009-11-02, 03:17:05,VALID,999.667,VALID,0,VALID,92.2421,VALID,0,VALID,20.5237,VALID,83,VALID,0.534766,
2009-11-02, 03:18:05,VALID,999.653,VALID,0,VALID,92.2574,VALID,0,VALID,20.4636,VALID,83,VALID,0.587109,
2009-11-02, 03:19:05,VALID,999.676,VALID,0,VALID,92.4939,VALID,0,VALID,20.4246,VALID,83,VALID,0.540625,
2009-11-02, 03:20:05,VALID,999.7,VALID,0,VALID,92.738,VALID,0,VALID,20.4652,VALID,82,VALID,0.692578,
2009-11-02, 03:21:05,VALID,999.694,VALID,0,VALID,92.9288,VALID,0,VALID,20.4636,VALID,49,VALID,0.928906,
2009-11-02, 03:22:05,VALID,999.708,VALID,0,VALID,92.7151,VALID,0,VALID,20.4441,VALID,32,VALID,1.03555,
2009-11-02, 03:23:05,VALID,999.691,VALID,0,VALID,92.6541,VALID,0,VALID,20.4051,VALID,24,VALID,0.908594,
2009-11-02, 03:24:05,VALID,999.715,VALID,0,VALID,92.8677,VALID,0,VALID,20.4051,VALID,24,VALID,0.824219,
2009-11-02, 03:25:05,VALID,999.754,VALID,0,VALID,92.7304,VALID,0,VALID,20.3662,VALID,24,VALID,1.30195,
2009-11-02, 03:26:05,VALID,999.772,VALID,0,VALID,92.738,VALID,0,VALID,20.3677,VALID,24,VALID,1.55117,
2009-11-02, 03:27:05,VALID,999.776,VALID,0,VALID,92.6923,VALID,0,VALID,20.2492,VALID,24,VALID,1.19414,
2009-11-02, 03:28:05,VALID,999.762,VALID,0,VALID,92.4786,VALID,0,VALID,20.1728,VALID,24,VALID,1.0207,
2009-11-02, 03:29:05,VALID,999.797,VALID,0,VALID,92.9059,VALID,0,VALID,20.1322,VALID,30,VALID,1.34102,
2009-11-02, 03:30:05,VALID,999.798,VALID,0,VALID,92.738,VALID,0.112286,VALID,20.1338,VALID,34,VALID,1.56953,
2009-11-02, 03:31:05,VALID,999.823,VALID,0,VALID,92.4405,VALID,0,VALID,20.0168,VALID,26,VALID,1.15195,
2009-11-02, 03:32:05,VALID,999.824,VALID,0,VALID,92.4481,VALID,0,VALID,19.9193,VALID,14,VALID,0.880859,
2009-11-02, 03:33:05,VALID,999.836,VALID,0,VALID,92.8754,VALID,0,VALID,19.9388,VALID,14,VALID,1.00508,
2009-11-02, 03:34:05,VALID,999.823,VALID,0,VALID,93.2874,VALID,0,VALID,20.0168,VALID,10,VALID,1.15039,
2009-11-02, 03:35:05,VALID,999.838,VALID,0,VALID,92.9822,VALID,0,VALID,19.9178,VALID,278,VALID,0.632031,
2009-11-02, 03:36:05,VALID,999.836,VALID,0,VALID,93.5163,VALID,0,VALID,20.1533,VALID,240,VALID,0.957422,
2009-11-02, 03:37:05,VALID,999.857,VALID,0,VALID,93.7299,VALID,0,VALID,20.2882,VALID,228,VALID,1.05234,
2009-11-02, 03:38:05,VALID,999.83,VALID,0,VALID,93.768,VALID,0,VALID,20.4067,VALID,231,VALID,0.273047,
2009-11-02, 03:39:05,VALID,999.816,VALID,0,VALID,93.6994,VALID,0,VALID,20.4262,VALID,231,VALID,0,
2009-11-02, 03:40:05,VALID,999.845,VALID,0,VALID,93.5468,VALID,0,VALID,20.4067,VALID,227,VALID,0.0242187,
2009-11-02, 03:41:05,VALID,999.815,VALID,0,VALID,93.6536,VALID,0,VALID,20.4051,VALID,104,VALID,0.658984,
2009-11-02, 03:42:05,VALID,999.857,VALID,0,VALID,93.707,VALID,0,VALID,20.4847,VALID,78,VALID,0.918359,
2009-11-02, 03:43:05,VALID,999.832,VALID,0,VALID,93.1729,VALID,0.112286,VALID,20.4246,VALID,68,VALID,1.46914,
2009-11-02, 03:44:05,VALID,999.837,VALID,0,VALID,92.7685,VALID,0,VALID,20.3482,VALID,64,VALID,1.51133,
2009-11-02, 03:45:05,VALID,999.855,VALID,0,VALID,92.7228,VALID,0,VALID,20.3092,VALID,58,VALID,1.20664,
2009-11-02, 03:46:05,VALID,999.857,VALID,0,VALID,92.6694,VALID,0,VALID,20.3108,VALID,56,VALID,0.877734,
2009-11-02, 03:47:05,VALID,999.892,VALID,0,VALID,92.6312,VALID,0,VALID,20.2913,VALID,56,VALID,0.769141,
2009-11-02, 03:48:05,VALID,999.886,VALID,0,VALID,92.7228,VALID,0,VALID,20.2702,VALID,56,VALID,0.828906,
2009-11-02, 03:49:05,VALID,999.909,VALID,0,VALID,92.8754,VALID,0,VALID,20.2897,VALID,56,VALID,0.905469,
2009-11-02, 03:50:05,VALID,999.953,VALID,0,VALID,92.8067,VALID,0,VALID,20.3108,VALID,56,VALID,0.975391,